[[{"header":{"parameterUnit":"m.s-1","parameterCategory":1,"la1":30.2991,"la2":30.254,"lo1":-89.0895,"lo2":-89.0444,"dy":0.0017,"dx":0.0017,"nx":28,"ny":28,"refTime":"2026-02-05T03:00:00:Z","depth":0,"parameterNumber":2,"parameterNumberName":"U-component_of_WINDS"},"data":[0,0,0,0,0,0,0,0,0,0,0,0,0,0,0,0,0,0,0,0,0,0,0,0,0,0,0,0,0,0,0,0,0,0,0,0,0,0,0,0,0,0,0,0,0,0,0,0,0,0,0,0,0,0,0,0,0,0,3.6939,3.694,0,3.7093,3.7095,3.7097,3.7031,3.7028,3.7024,3.702,3.7184,3.7192,3.7199,0,0,0,0,0,0,0,0,0,0,0,0,0,3.6593,3.66,3.6939,3.6941,3.6942,3.7093,3.7095,3.7097,3.7032,3.7027,3.7023,3.7019,3.7181,3.7191,3.72,0,0,0,0,0,0,0,0,0,0,0,0,0,3.6745,3.6602,3.6938,3.6928,3.6928,3.7093,3.7095,3.7098,3.7033,3.7027,3.7022,3.7016,3.7178,3.719,3.7201,3.7386,0,0,3.7237,3.7242,0,0,0,0,0,0,0,0,3.6736,3.6758,3.6928,3.6929,3.693,3.7037,3.7033,3.7195,3.7034,3.6994,3.702,3.7014,3.714,3.7155,3.7196,3.7394,3.7401,3.7238,3.7246,3.7251,3.7254,0,0,0,0,0,0,0,3.6726,3.6751,3.7,3.693,3.6932,3.6918,3.6933,3.7064,3.7097,3.6997,3.6992,3.7011,3.714,3.7185,3.7199,3.7403,3.7238,3.7249,3.7256,3.726,3.7764,3.777,0,0,0,0,0,0,3.6715,3.6742,3.6995,3.7005,3.6817,3.6928,3.6945,3.7009,3.7095,3.7103,3.7016,3.7007,3.7168,3.7186,3.7205,3.7429,3.725,3.7262,3.7268,3.7757,3.7765,3.7772,0,0,0,0,0,0,3.6707,3.6738,3.6989,3.6872,3.6903,3.694,3.7012,3.7015,3.706,3.7109,3.7115,3.7056,3.7164,3.7188,3.7342,3.7434,3.7267,3.7278,3.775,3.776,3.7768,3.7877,0,0,0,0,0,0,3.6698,3.6735,3.6805,3.6874,3.691,3.7122,3.7017,3.7022,3.7079,3.707,3.7148,3.7156,3.7161,3.7325,3.7354,3.7447,3.7287,3.7742,3.7754,3.7765,3.7866,3.7889,3.791,0,0,0,0,0,3.6686,3.683,3.6808,3.6839,3.6997,3.7127,3.7147,3.7149,3.7087,3.7158,3.719,3.7153,3.7419,3.7341,3.7373,3.7471,3.7736,3.7751,3.7765,3.7856,3.7885,3.7909,0,0,0,0,0,0,3.6772,3.6839,3.6816,3.6986,3.7051,3.7116,3.7205,3.7179,3.7265,3.7253,3.7253,3.7271,3.743,3.7466,3.7378,3.7656,3.7568,3.759,3.7627,3.7655,3.7676,3.7665,3.7296,0,0,0,0,0,3.681,3.6909,3.6963,3.7108,3.7142,3.7168,3.7225,3.7221,3.7289,3.7316,3.7359,3.7429,3.7527,3.7593,3.7686,3.787,3.7888,3.7954,3.7976,3.7993,3.8012,3.8115,3.8145,3.7818,3.7818,3.7818,0,0,3.6891,3.694,3.7003,3.7127,3.7176,3.7281,3.7192,3.7305,3.7383,3.7334,3.7482,3.7516,3.7593,3.7763,3.784,3.7798,3.8106,3.8012,3.8025,3.8035,3.8133,3.8163,3.8191,3.7828,3.7826,3.7825,0,0,3.7093,3.7139,3.7266,3.7318,3.7393,3.741,3.7441,3.751,3.753,3.7678,3.7644,3.7737,3.7907,3.7964,3.8016,3.824,3.8211,3.8271,3.8386,3.8486,3.8511,3.8534,3.8617,3.8646,3.8289,3.8289,3.829,0,3.7185,3.7338,3.7335,3.7452,3.7508,3.7467,3.7598,3.7648,3.7752,3.7793,3.7743,3.7957,3.8006,3.819,3.8245,3.8287,3.8324,3.8262,3.8508,3.8531,3.8552,3.863,3.8661,3.8296,3.8296,3.8295,3.8294,0,3.7449,3.7556,3.765,3.775,3.7817,3.794,3.7957,3.8026,3.8016,3.8039,3.8192,3.8249,3.8354,3.8397,3.8389,3.8581,3.8553,3.8506,3.8418,3.859,3.8664,3.8694,3.8306,3.8304,3.8302,3.83,0,0,3.7709,3.7806,3.7841,3.7886,3.7967,3.8051,3.8173,3.8275,3.8335,3.8408,3.8513,3.8658,3.8615,3.8673,3.8671,3.8759,3.8936,3.8701,3.8703,3.8745,3.9154,3.919,3.9225,3.8916,3.8922,3.8926,3.9148,0,3.7918,3.813,3.8132,3.8328,3.8429,3.8391,3.8498,3.8561,3.8586,3.8676,3.8704,3.8808,3.8742,3.8778,3.8862,3.8896,3.9018,3.888,3.9015,3.902,3.8999,3.9263,3.9301,3.9508,3.9176,3.9181,3.9185,0,3.8191,3.8271,3.8478,3.8546,3.8588,3.8684,3.8778,3.8864,3.8935,3.8947,3.9013,3.8998,3.9126,3.9033,3.9209,3.9115,3.9171,3.9196,3.9204,3.9218,3.9114,3.9286,3.9573,3.9605,3.923,3.9226,3.9223,0,3.8363,3.8523,3.8667,3.8707,3.879,3.8858,3.8896,3.8962,3.9023,3.9107,3.9147,3.9244,3.9298,3.9375,3.9388,3.9319,3.9567,3.9474,3.9582,3.9582,3.9637,3.9634,3.994,3.967,3.967,3.9669,3.9669,0,3.8597,3.8725,3.8746,3.8835,3.8978,3.8979,3.9122,3.9154,3.9213,3.931,3.9284,3.9376,3.9386,3.9482,3.9493,3.9639,3.9663,3.9678,3.968,3.9682,3.968,3.9719,3.9706,3.9677,3.9676,3.9674,3.9673,0,3.8814,3.8832,3.8988,3.9053,3.9072,3.9175,3.9232,3.9319,3.9341,3.9464,3.9493,3.9528,3.9639,3.9659,3.9791,3.9798,3.9973,3.996,3.9949,3.9948,4.0056,4.0046,4.0399,4.0446,4.0144,4.0147,4.0149,0,3.8963,3.906,3.9136,3.9198,3.9239,3.9339,3.9402,3.9407,3.9474,3.9563,3.964,3.9748,3.9834,4.0014,4.0054,4.0155,4.0144,4.0261,4.016,4.0159,4.0149,4.0144,4.0154,4.0281,4.0284,4.0287,4.0289,0,3.9226,3.9231,3.9321,3.9415,3.949,3.9565,3.9636,3.9689,3.9704,3.9781,3.9893,3.9961,4.0095,4.0203,4.0304,4.0345,4.0322,4.032,4.0351,4.0355,4.0345,4.0354,4.0004,4.0313,4.031,4.0309,4.0307,4.0306,3.9415,3.9501,3.9568,3.967,3.9723,3.9791,3.9875,3.9908,4.0001,4.0109,4.0107,4.0231,4.0302,4.0435,4.0483,4.0582,4.0545,4.0589,4.0601,4.0612,4.0623,4.0328,4.06,4.0599,4.0599,4.0598,4.0598,0,3.9679,3.972,3.9814,3.9913,3.9994,3.9962,4.0039,4.011,4.0219,4.0286,4.0372,4.0502,4.0608,4.0655,4.076,4.083,4.0822,4.0858,4.0854,4.0864,4.0649,4.0613,4.0863,4.0863,4.0863,4.0863,4.0863,4.0863,3.9826,3.997,3.9983,4.0154,4.0194,4.0314,4.0362,4.0425,4.0478,4.0625,4.0712,4.0741,4.0802,4.091,4.1007,4.1018,4.1059,4.1101,4.1107,4.0906,4.0879,4.0854,4.082,4.1109,4.1109,4.1314,4.1316,4.1318]},{"header":{"parameterUnit":"m.s-1","parameterCategory":1,"la1":30.2991,"la2":30.254,"lo1":-89.0895,"lo2":-89.0444,"dy":0.0017,"dx":0.0017,"nx":28,"ny":28,"refTime":"2026-02-05T03:00:00:Z","depth":0,"parameterNumber":3,"parameterNumberName":"V-component_of_WINDS"},"data":[0,0,0,0,0,0,0,0,0,0,0,0,0,0,0,0,0,0,0,0,0,0,0,0,0,0,0,0,0,0,0,0,0,0,0,0,0,0,0,0,0,0,0,0,0,0,0,0,0,0,0,0,0,0,0,0,0,0,-2.3738,-2.3739,0,-2.3919,-2.3921,-2.3923,-2.3949,-2.3947,-2.3945,-2.3944,-2.4132,-2.4139,-2.4145,0,0,0,0,0,0,0,0,0,0,0,0,0,-2.3416,-2.3422,-2.3737,-2.374,-2.3742,-2.3919,-2.3921,-2.3924,-2.3949,-2.3947,-2.3945,-2.3943,-2.413,-2.4138,-2.4146,0,0,0,0,0,0,0,0,0,0,0,0,0,-2.3572,-2.3424,-2.3737,-2.3776,-2.3781,-2.3918,-2.3921,-2.3924,-2.3949,-2.3947,-2.3944,-2.3942,-2.4127,-2.4137,-2.4147,-2.4258,0,0,-2.4177,-2.4181,0,0,0,0,0,0,0,0,-2.3563,-2.3584,-2.3768,-2.3773,-2.3779,-2.3908,-2.3877,-2.4036,-2.395,-2.3886,-2.3944,-2.3941,-2.406,-2.4075,-2.4115,-2.4267,-2.4275,-2.4178,-2.4184,-2.4188,-2.4191,0,0,0,0,0,0,0,-2.3552,-2.3576,-2.3809,-2.377,-2.3778,-2.3785,-2.3805,-2.3907,-2.3985,-2.3891,-2.3893,-2.3914,-2.4063,-2.4105,-2.4119,-2.4278,-2.4178,-2.4186,-2.4192,-2.4196,-2.4533,-2.4536,0,0,0,0,0,0,-2.3534,-2.3567,-2.3804,-2.3815,-2.3663,-2.3793,-2.3815,-2.387,-2.3984,-2.3999,-2.3916,-2.3915,-2.409,-2.4108,-2.4126,-2.4265,-2.4188,-2.4197,-2.4203,-2.453,-2.4533,-2.4537,0,0,0,0,0,0,-2.3527,-2.3555,-2.3796,-2.3692,-2.3723,-2.3801,-2.3863,-2.3875,-2.3917,-2.4003,-2.4017,-2.3945,-2.4088,-2.4112,-2.4226,-2.4272,-2.4202,-2.4211,-2.4526,-2.4531,-2.4535,-2.4544,0,0,0,0,0,0,-2.3518,-2.3552,-2.3595,-2.3692,-2.3728,-2.3891,-2.3866,-2.388,-2.3934,-2.3934,-2.4034,-2.4048,-2.4088,-2.4211,-2.4235,-2.4285,-2.4218,-2.4522,-2.4528,-2.4534,-2.454,-2.4548,-2.4555,0,0,0,0,0,-2.3506,-2.359,-2.3597,-2.3625,-2.3783,-2.3894,-2.3915,-2.3959,-2.3937,-2.3982,-2.4037,-2.4045,-2.4263,-2.4222,-2.425,-2.4303,-2.452,-2.4527,-2.4533,-2.4536,-2.4546,-2.4555,0,0,0,0,0,0,-2.3497,-2.3604,-2.3612,-2.373,-2.3803,-2.3898,-2.3955,-2.3968,-2.4049,-2.4045,-2.4097,-2.4119,-2.423,-2.4278,-2.423,-2.4418,-2.439,-2.4402,-2.4382,-2.4393,-2.44,-2.4387,-2.4227,0,0,0,0,0,-2.3508,-2.3589,-2.3678,-2.3774,-2.381,-2.3876,-2.3926,-2.3953,-2.4031,-2.4062,-2.4126,-2.4201,-2.4287,-2.4343,-2.4426,-2.4547,-2.457,-2.4597,-2.4605,-2.4611,-2.4621,-2.469,-2.4703,-2.4559,-2.4559,-2.4559,0,0,-2.3533,-2.3602,-2.3649,-2.3774,-2.3833,-2.3916,-2.3902,-2.399,-2.4053,-2.4076,-2.4187,-2.4236,-2.4324,-2.4442,-2.4497,-2.4485,-2.4666,-2.4619,-2.4623,-2.4631,-2.4698,-2.4712,-2.4724,-2.4564,-2.4563,-2.4562,0,0,-2.3621,-2.3681,-2.3767,-2.3827,-2.3917,-2.3961,-2.3981,-2.4075,-2.4109,-2.422,-2.424,-2.4316,-2.4462,-2.4524,-2.4575,-2.4687,-2.4699,-2.4713,-2.4754,-2.482,-2.4831,-2.4842,-2.4883,-2.4897,-2.4723,-2.4723,-2.4723,0,-2.3641,-2.3766,-2.381,-2.3898,-2.3953,-2.3977,-2.4066,-2.4122,-2.4235,-2.4273,-2.4258,-2.4442,-2.4504,-2.4636,-2.4664,-2.4704,-2.473,-2.4702,-2.4826,-2.4837,-2.4847,-2.4887,-2.4902,-2.4725,-2.4725,-2.4724,-2.4724,0,-2.3787,-2.3873,-2.3932,-2.404,-2.4102,-2.4189,-2.4248,-2.4305,-2.4327,-2.4372,-2.4487,-2.4561,-2.466,-2.4694,-2.4717,-2.4831,-2.4821,-2.4815,-2.4788,-2.4861,-2.49,-2.4915,-2.4726,-2.4726,-2.4726,-2.4725,0,0,-2.3874,-2.4005,-2.4026,-2.4076,-2.4177,-2.4245,-2.4335,-2.4431,-2.4479,-2.4557,-2.4634,-2.4758,-2.4753,-2.4811,-2.4841,-2.4899,-2.4985,-2.4887,-2.489,-2.4903,-2.5116,-2.512,-2.5136,-2.4992,-2.4996,-2.4998,-2.5109,0,-2.3974,-2.4133,-2.4175,-2.4311,-2.4392,-2.4417,-2.4495,-2.4566,-2.4611,-2.4687,-2.4738,-2.4825,-2.4812,-2.4848,-2.4906,-2.4962,-2.5028,-2.4954,-2.5066,-2.5069,-2.5043,-2.5156,-2.516,-2.5261,-2.5124,-2.5127,-2.5128,0,-2.4112,-2.4191,-2.4335,-2.4426,-2.4462,-2.4531,-2.4623,-2.4696,-2.4778,-2.4807,-2.4871,-2.4896,-2.4992,-2.4959,-2.5092,-2.5041,-2.5089,-2.5124,-2.5129,-2.5141,-2.5103,-2.5172,-2.5295,-2.531,-2.5152,-2.515,-2.5149,0,-2.4162,-2.4305,-2.4409,-2.4451,-2.456,-2.4608,-2.4656,-2.4736,-2.4791,-2.4872,-2.4909,-2.5,-2.5051,-2.5122,-2.5171,-2.5143,-2.53,-2.5272,-2.5328,-2.5327,-2.5361,-2.5358,-2.5493,-2.5391,-2.539,-2.539,-2.539,0,-2.427,-2.4357,-2.4433,-2.4497,-2.4596,-2.4644,-2.4741,-2.479,-2.4861,-2.4936,-2.4963,-2.5033,-2.5094,-2.5173,-2.5212,-2.5317,-2.5339,-2.5366,-2.5376,-2.5364,-2.5361,-2.5397,-2.5392,-2.5394,-2.5393,-2.5392,-2.5392,0,-2.4342,-2.4397,-2.4512,-2.4606,-2.4632,-2.47,-2.4781,-2.4845,-2.4891,-2.4986,-2.5011,-2.5084,-2.5179,-2.5235,-2.5354,-2.5381,-2.5497,-2.5503,-2.5469,-2.5473,-2.5527,-2.5521,-2.569,-2.5715,-2.5595,-2.5596,-2.5597,0,-2.4408,-2.4475,-2.4576,-2.4628,-2.4676,-2.4759,-2.4816,-2.4867,-2.4925,-2.5024,-2.5076,-2.5172,-2.5251,-2.5401,-2.5465,-2.5557,-2.5566,-2.5619,-2.558,-2.5567,-2.5568,-2.5564,-2.5571,-2.5626,-2.5627,-2.5628,-2.5628,0,-2.4518,-2.4542,-2.4622,-2.4712,-2.4779,-2.4852,-2.4926,-2.4967,-2.503,-2.5095,-2.5191,-2.5252,-2.5374,-2.5469,-2.5567,-2.5618,-2.5635,-2.564,-2.5658,-2.5647,-2.5625,-2.5639,-2.5488,-2.5636,-2.5635,-2.5635,-2.5634,-2.5634,-2.459,-2.4651,-2.4732,-2.482,-2.4881,-2.4949,-2.5014,-2.5068,-2.5148,-2.5251,-2.5276,-2.5378,-2.5459,-2.5592,-2.5645,-2.5726,-2.5717,-2.5743,-2.575,-2.5756,-2.5758,-2.5611,-2.5744,-2.5743,-2.5743,-2.5743,-2.5743,0,-2.4702,-2.4755,-2.4836,-2.4938,-2.5008,-2.5016,-2.5098,-2.5157,-2.5245,-2.5319,-2.5396,-2.5508,-2.56,-2.5672,-2.5767,-2.5819,-2.5829,-2.5842,-2.5839,-2.5851,-2.5759,-2.5734,-2.5832,-2.5832,-2.5832,-2.5832,-2.5832,-2.5832,-2.4769,-2.4873,-2.4907,-2.5042,-2.5095,-2.5193,-2.524,-2.5303,-2.5363,-2.5485,-2.5562,-2.5608,-2.5681,-2.5782,-2.5868,-2.5887,-2.5922,-2.5934,-2.5954,-2.5867,-2.5857,-2.5848,-2.5825,-2.594,-2.5941,-2.6039,-2.604,-2.6041]}]]